Regional Weather Roundup
Issued by NWS Sioux Falls, SD

Home | Current Version | Previous Version | Graphics & Text | Print | Product List | Glossary Off
Versions: 1 2 3 4 5 6 7 8 9 10 11 12 13 14 15 16 17 18 19 20 21 22 23 24 25 26 27 28 29 30 31 32 33 34 35 36 37 38 39 40 41 42 43 44 45 46 47 48 49 50

000
ASUS43 KFSD 261610
RWRFSD

WEATHER ROUNDUP FOR SE SOUTH DAKOTA/SW MINNESOTA/NW IOWA
NATIONAL WEATHER SERVICE SIOUX FALLS SD
1100 AM CDT THU MAR 26 2015

NOTE: "FAIR" INDICATES FEW OR NO CLOUDS BELOW 12,000 FEET WITH NO
SIGNIFICANT WEATHER AND OR OBSTRUCTIONS TO VISIBILITY.


SDZ038>040-050-052>070-261700-
SOUTHEAST SOUTH DAKOTA

CITY           SKY/WX    TMP DP  RH WIND       PRES   REMARKS
CHAMBERLAIN    CLOUDY    33  23  67 E3        30.17S
HURON          CLOUDY    32  23  69 N6        30.20S WCI  26
MADISON        FAIR      32  28  86 N9        30.16S WCI  24
MITCHELL       CLOUDY    33  23  66 VRB3      30.21S
SIOUX FALLS    CLOUDY    37  24  59 NW9       30.18F
WINNER         CLOUDY    37  23  56 E12       30.13S
YANKTON        PTSUNNY   36  21  55 W3        30.22S
$$

MNZ071-072-080-081-089-090-097-098-261700-
SOUTHWEST MINNESOTA

CITY           SKY/WX    TMP DP  RH WIND       PRES   REMARKS
FAIRMONT       SUNNY     34  16  47 NW18      30.14S WCI  23
JACKSON        MOSUNNY   34  23  64 NW21      30.15S WCI  22
LUVERNE        MOSUNNY   37  27  65 NW10      30.18S
MARSHALL       CLOUDY    30  19  64 N17       30.19R WCI  18
MONTEVIDEO     SUNNY     32  19  59 N16       30.20R WCI  21
PIPESTONE      PTSUNNY   32  25  74 N6        30.16R WCI  26
REDWOOD FALLS  SUNNY     32  17  54 N14G21    30.18R WCI  22
TRACY          PTSUNNY   32  25  73 NW15      30.18S WCI  22
WINDOM         MOSUNNY   34  23  64 NW20      30.15S WCI  22
WORTHINGTON    PTSUNNY   34  21  60 N14       30.17R WCI  24
$$

IAZ001>003-012>014-020>022-031-032-NEZ013-014-SDZ071-261700-
NORTHWEST IOWA

CITY           SKY/WX    TMP DP  RH WIND       PRES   REMARKS
CHEROKEE       SUNNY     39  26  60 NW10      30.18S
DENISON        SUNNY     39  27  60 NW8       30.17F
ESTHERVILLE    PTSUNNY   35  26  69 N18       30.15S WCI  24
LE MARS        SUNNY     39  25  56 NW10      30.21R
ORANGE CITY    SUNNY     39  25  56 NW9G16    30.18R
SHELDON        SUNNY     37  27  65 NW10G18   30.17R
SIOUX CITY     SUNNY     40  24  53 NW12      30.21F
SPENCER        MOSUNNY   39  25  57 NW16      30.17R
STORM LAKE     SUNNY     39  23  52 NW17G23   30.17S
$$

ABBREVIATIONS USED IN REMARKS
   TC - TEMPERATURE IN CELSIUS
  WCI - WIND CHILL INDEX
   HX - HEAT INDEX
  VSB - VISIBILITY




USA.gov is the U.S. government's official web portal to all federal, state and local government web resources and services.